Torna al catalogo

STARLINK-31877

AttivoComunicazioniVLEO
NORAD 59675·PAYLOAD·🇺🇸 United States

Lanciato May 6, 2024 da Cape Canaveral Space Force Station

Loading…

Prossimi Passaggi (prossime 24 ore)

TLE

AggiornatoSource: CelesTrak SupGP

Epoca: Sep 15, 2026, 02:19 UTC

1 59675C 24084X   26258.09701389 -.00027723  00000+0 -10043-2 0  2580
2 59675  43.0011  52.2378 0001476 271.1200 287.0979 15.27587159    14

Traccia STARLINK-31877 in tempo reale con AllMySat

Download on the App Store